www.pogodaiklimat.ru

Погода и климат >> Архив погоды >> Украина >> Умань


ПОГОДА в Умани

  • Прогноз погоды в Умани
  • Монитор погоды в Умани

АРХИВ ПОГОДЫ в Умани

Время (UTC), дата Ветер
(напр.,м/с)
 
Видим.   Явления Облачность Т
(С)
Тd
(С)
f
(%)
Тe
(С)
Тes
(С)
Комфортность P
(гПа)
Po
(гПа)
Тmin
(С)
Tmax
(С)
R
(мм)
R24
(мм)
S
(см)
15 18.06 СЗ 3 20 км 4/0
[Ci fib]
+27.0 +14.6 47 +30 +33 душно 1015.0 990.6
18 18.06 штиль 0 10 км 10/0
[Ci fib]
+24.3 +17.6 66 +28 +28 душно 1015.1 990.6 +28.1
21 18.06 штиль 0 н/о 6/0
[Ci fib]
+20.5 +17.6 83 +24 +24 комфорт 1016.5 991.6
00 19.06 штиль 0 н/о ясно +19.5 +16.7 84 +21 +21 комфорт 1016.0 991.0
03 19.06 штиль 0 10 км ясно +17.7 +16.0 90 +18 +18 1016.2 991.1
06 19.06 СВ 1 20 км ясно +24.6 +16.4 60 +28 +38 душно 1015.8 991.3 +17.6
09 19.06 С 2 20 км 8/8 1000 м
[Cu med, cong]
+26.4 +15.4 51 +29 +33 жарко 1015.7 991.2
12 19.06 СЗ 3 20 км 6/6 1000 м
[Cu hum]
+27.2 +14.6 46 +30 +35 душно 1014.8 990.4
15 19.06 В 2 20 км 8/8 1000 м
[Cu med, cong]
+27.6 +16.1 50 +31 +32 душно 1013.6 989.3
18 19.06 В 2 20 км ясно +25.0 +17.4 63 +29 +29 душно 1013.8 989.3 +28.5
21 19.06 штиль 0 н/о ясно +20.1 +16.4 79 +23 +23 комфорт 1014.6 989.6
00 20.06 штиль 0 н/о ясно +18.9 +16.2 84 +20 +20 1014.6 989.6
03 20.06 штиль 0 10 км 4/0
[Ci fib]
+18.5 +14.7 79 +19 +20 1014.6 989.5
06 20.06 СВ 2 20 км 3/0
[Ci fib]
+25.9 +17.4 59 +30 +37 душно 1013.8 989.3 +18.2
09 20.06 С 2 20 км 3/3 1000 м
[Cu hum]
+28.5 +17.3 51 +33 +45 очень
душно
1013.3 989.1
12 20.06 СВ 3 20 км 8/8 1000 м
[Cu med, cong]
+29.0 +16.9 48 +33 +35 очень
душно
1012.9 988.7
15 20.06 В 2 20 км 3/3 1000 м
[Cu hum]
+29.7 +16.7 46 +33 +37 душно 1012.2 988.1
18 20.06 СВ 2 20 км ясно +26.5 +17.4 57 +31 +31 душно 1012.8 988.4 +30.3
21 20.06 штиль 0 н/о ясно +20.0 +16.2 79 +22 +22 комфорт 1014.2 989.2
00 21.06 штиль 0 н/о 5/0
[Ac trans]
+19.1 +15.9 82 +20 +20 1014.4 989.4
03 21.06 штиль 0 10 км ясно +17.7 +15.3 86 +18 +18 1015.1 990.0
06 21.06 штиль 0 20 км ясно +25.3 +16.2 57 +29 +40 душно 1014.9 990.4 +17.5
09 21.06 В 2 20 км ясно +29.5 +17.0 47 +33 +51 опасность
солнечного
удара
1014.7 990.6
12 21.06 В 2 20 км 4/4 1000 м
[Cu hum]
+31.3 +14.2 35 +33 +42 жарко 1014.2 990.1
15 21.06 ЮВ 2 20 км ясно +30.5 +12.8 34 +32 +36 жарко 1013.6 989.5
18 21.06 штиль 0 20 км 3/0
[Ci fib]
+25.8 +15.4 53 +29 +29 душно 1013.9 989.4 +31.7
21 21.06 штиль 0 н/о ясно +20.1 +14.9 72 +22 +22 комфорт 1015.1 990.1
00 22.06 штиль 0 н/о 3/3 1000 м
[Sc]
+18.9 +14.4 75 +20 +20 1015.3 990.3
03 22.06 штиль 0 10 км 6/0
[Ac trans]
+17.3 +14.9 86 +17 +18 1015.6 990.4
06 22.06 Ю 1 20 км 3/0
[Ac und]
+26.9 +15.9 51 +30 +38 душно 1015.4 991.0 +17.2
09 22.06 ЮВ 2 20 км 3/0
[Ac cast]
+32.1 +14.3 34 +34 +47 душно 1015.3 991.3
12 22.06 Ю 2 20 км 4/4 1000 м
[Cu med, cong]
+32.5 +15.5 36 +35 +44 душно 1014.7 990.8
15 22.06 С 1 20 км ясно +32.1 +15.1 36 +34 +40 душно 1013.8 989.8
18 22.06 штиль 0 20 км 5/0
[Cc]
+25.7 +17.6 61 +30 +30 душно 1014.5 990.0 +33.3
21 22.06 СЗ 2 н/о ясно +23.3 +17.9 72 +29 +29 душно 1014.9 990.3
00 23.06 СЗ 2 н/о ясно +21.6 +17.0 75 +26 +26 душно 1014.8 990.0
03 23.06 З 2 10 км 6/3 1000 м
[Sc Ac und Ci fib]
+20.1 +17.8 87 +24 +24 комфорт 1015.3 990.3
06 23.06 З 2 10 км 3/3 1000 м
[Cu hum]
+24.1 +19.0 73 +29 +35 душно 1015.1 990.6 +19.4
09 23.06 СЗ 2 20 км 3/0
[Ac trans]
+28.9 +19.1 55 +34 +48 очень
душно
1014.6 990.4
12 23.06 В 2 20 км 3/3 1000 м
[Cu hum]
+30.2 +19.4 52 +36 +46 очень
душно
1014.1 990.0
15 23.06 ЮЗ 2 20 км {гроза} 6/4 600 м
[Cu hum Ci fib]
+26.1 +16.9 57 +30 +32 душно 1014.1 989.6
18 23.06 З 2 20 км {гроза} 8/0
[Ac lent Ci fib]
+24.1 +17.4 66 +28 +28 душно 1015.1 990.5 +31.4
21 23.06 штиль 0 н/о ясно +20.6 +15.4 72 +23 +23 комфорт 1015.9 991.0
00 24.06 штиль 0 н/о ясно +19.7 +15.3 76 +22 +22 комфорт 1016.1 991.1
03 24.06 штиль 0 10 км 8/0
[Ac lent]
+19.9 +15.9 78 +22 +22 комфорт 1016.8 991.8
06 24.06 С 2 10 км 10/5 1000 м
[Sc Ac trans]
+22.9 +17.4 71 +28 +30 душно 1017.6 992.8 +19.2
09 24.06 СВ 2 20 км 8/0
[Ac trans]
+28.0 +16.6 50 +32 +41 душно 1017.6 993.2
12 24.06 СЗ 2 20 км 9/8 1000 м
[Cu med, cong Ac trans]
+29.3 +17.1 48 +33 +35 душно 1017.7 993.4
15 24.06 СВ 3 20 км 4/3 1000 м
[Cu med, cong Ci fib]
+28.5 +17.4 51 +33 +35 очень
душно
1017.7 993.4
18 24.06 СЗ 2 20 км 10/3 1000 м
[Cu hum Ci fib]
+25.6 +17.7 62 +30 +30 душно 1019.0 994.4 +30.0
21 24.06 С 1 н/о ясно +23.3 +18.1 73 +29 +29 душно 1020.2 995.4
00 25.06 С 3 н/о ясно +22.2 +17.4 74 +27 +27 душно 1020.6 995.7
03 25.06 С 3 10 км 3/0
[Ci fib]
+20.9 +17.2 79 +25 +25 комфорт 1021.5 996.5
06 25.06 С 4 10 км 3/0
[Ci fib]
+24.3 +17.6 66 +28 +33 душно 1022.4 997.6 +20.9
09 25.06 СВ 5 20 км 4/4 600 м
[Cu hum]
+27.6 +17.5 54 +32 +37 очень
душно
1022.9 998.4
12 25.06 СВ 5 20 км 3/3
[Cu hum]
+28.4 +15.1 44 +31 +36 душно 1023.0 998.5

 

Местоположение метеостанции Умань (Черкасская область, Украина): широта 48.77 долгота 30.23 высота над уровнем моря 216 м.

В архиве по умолчанию представлена погода в Умани за последнюю неделю. Архивные данные за месяц целиком и за предыдущие месяцы, начиная с января 2011 года, Вы можете получить, выбрав интересующий диапазон дат из раскрывающегося списка и нажав кнопку "Ввод!".


*Определитесь, кто Вы:
робот инопланетянин человек

Внимание! Время в таблицах - всемирное. Для получения местного времени необходимо прибавить поправку, которая равна 2 ч.

Смотрите также архив погоды в соседних городах и на ближайших метеорологических станциях:

Погода в Гайвороне (Кировоградская область, Украина) (54 км)
Погода в Жашкове (Черкасская область, Украина) (54 км)
Погода в Звенигородке (Черкасская область, Украина) (60 км)
Погода в Гайсине (Винницкая область, Украина) (61 км)
Погода в Первомайске (Николаевская область, Украина) (92 км)
Погода в Любашевке (Одесская область, Украина) (102 км)
Погода в Новомиргороде (Кировоградская область, Украина) (103 км)
Погода в Помошной (Кировоградская область, Украина) (105 км)
Погода в Белой Церкви (Киевская область, Украина) (109 км)
Погода в Ротмистровке (Черкасская область, Украина) (115 км)

Пояснения к столбцам:

Ветер - указаны скорость ветра в м/с - средняя за 10 мин, порывы в срок и между сроками (в фигурных скобках) и направление, откуда дует ветер: С - северный, СВ - северо-восточный, В - восточный, ЮВ - юго-восточный, Ю - южный, ЮЗ - юго-западный, З - западный, СЗ - северо-западный.
Видимость - горизонтальная дальность видимости в метрах или километрах. При видимости от 1 до 10 км при отсутствии осадков обычно наблюдается дымка, при ухудшении видимости до 1 км и менее - туман. В сухую погоду видимость может ухудшаться дымом, пылью или мглою.
Явления - указаны атмосферные явления, наблюдавшиеся в срок или в последний час перед сроком; фигурными скобками обозначены явления, наблюдавшиеся между сроками (за 1-3 часа до срока); квадратными скобками обозначены град или гололедные отложения с указанием их диаметра в мм.
Облачность - указаны через наклонную черту общая и нижняя облачность в баллах и высота нижней границы облаков в метрах; квадратными скобками обозначены формы облаков: Ci - перистые, Cs - перисто-слоистые, Cc - перисто-кучевые, Ac - высококучевые, As - высокослоистые, Sc - слоисто-кучевые, Ns - слоисто-дождевые, Cu - кучевые, Cb - кучево-дождевые. Подробнее классификацию облаков см. в Атласе облаков (PDF).
T - Температура воздуха - температура, измеренная на высоте 2 м над землей.
Td - Температура точки росы - температура, при понижении до которой содержащийся в воздухе водяной пар достигнет насыщения.
f - Относительная влажность воздуха - влажноcть воздуха, измеренная на высоте 2 м над землей.
Te - Эффективная температура - температура, которую ощущает одетый по сезону человек в тени. Характеристика душности погоды. При расчете учитывается влияние влажности воздуха и скорости ветра на теплоощущения человека.
Tes - Эффективная температура на солнце - температура, которую ощущает человек, с поправкой на солнечный нагрев. Характеристика знойности погоды. Зависит от высоты солнца над горизонтом, облачности и скорости ветра. Ночью, в пасмурную погоду, а также при ветре 12 м/с и более поправка равна нулю.
P - Атмосферное давление - приведенное к уровню моря атмосферное давление.
Po - Атмосферное давление - измеренное на уровне метеостанции атмосферное давление.
Tmin - Минимальная температура - минимум температуры воздуха на высоте 2 м над землей.
Tmax - Максимальная температура - максимум температуры воздуха на высоте 2 м над землей.
R - Количество осадков - Количество выпавших осадков за период времени, мм. При наведении курсора мыши на число - период времени, за который выпало указанное количество осадков.
R24 - Количество осадков - Количество выпавших осадков за 24 часа, мм.
S - Снежный покров - Высота снежного покрова, см. При наведении курсора мыши на число - состояние снежного покрова и степень покрытия местности в баллах.